sat.trackr.live / text

‹ back to catalog

STARLINK-11605 [DTC]

NORAD 63134 · 2025-043C

PAYLOAD ACTIVE UNKNOWN

§ Identity

Operator
Country
US
Launch date
2025-03-03
Launch site
AFETR
Launch vehicle
Mass (kg)
RCS (m²)

Purposes: comms

External: N2YO · Heavens-Above · Gunter

§ Orbital elements

Epoch: 2026-09-20T23:25:50.346624Z

Period
91.68 min
Inclination
43.0016°
Eccentricity
0.0001827
Mean motion
15.70699180 rev/d
Perigee alt
355.7 km
Apogee alt
358.1 km
Semi-major
6,735.0 km
B*
2.5837e-3
RAAN
153.7731°
Arg perigee
263.6587°
Mean anomaly
96.4072°
Rev number
9,006

§ Raw data

STARLINK-11605 [DTC]1 63134U 25043C   26263.97627716  .00343097  00000+0  25837-2 0  99972 63134  43.0016 153.7731 0001827 263.6587  96.4072 15.70699180 90064

JSON: /api/v1/satellites/63134 · /tle

For live sub-satellite position, see the globe view (requires WebGL).

§ Visibility from observer

Set your observer location to see the next 7 days of passes ≥ 10°. The values pass through the URL so the page stays shareable.

No JS? Fill the form by hand. The geolocation button needs JavaScript.